Visibility
15.0 15.0 14.5 13.7 15.0 14.6 15.0 15.0 13.3 15.0 15.0 15.0 15.0 15.0 15.0 15.0 13.0 15.0 15.0 9.5 15.0 15.0 15.0 15.0 15.0 15.0 15.0 15.0 15.0 15.0 15.0 15.0 15.0 15.0 15.0 15.0 15.0 15.0
14.9 15.0 15.0 14.7 13.4 15.0 15.0 15.0 15.0 11.7 12.2 15.0 15.0 15.0 15.0 15.0 13.5 4.4 7.5 9.4 4.7 15.0 15.0 15.0 15.0 15.0 15.0 15.0 15.0 15.0 10.9 15.0 15.0 15.0 15.0 15.0 15.0 15.0
6.1 13.3 13.7 14.3 15.0 15.0 9.4 8.8 5.1 4.9 5.1 14.8 15.0 15.0 15.0 13.5 13.3 13.8 8.4 4.9 2.9 0.7 15.0 13.6 15.0 15.0 15.0 15.0 15.0 15.0 15.0 11.6 14.3 15.0 15.0 15.0 15.0 15.0
1.0 1.8 0.6 6.8 15.0 8.9 0.5 6.0 14.6 4.3 4.1 15.0 15.0 15.0 15.0 15.0 15.0 15.0 15.0 15.0 15.0 0.1 0.1 15.0 15.0 15.0 15.0 15.0 15.0 15.0 15.0 9.5 15.0 7.4 15.0 15.0 15.0 15.0
8.8 4.1 2.4 4.3 0.5 7.8 15.0 0.2 1.8 2.5 8.0 6.5 8.0 15.0 15.0 15.0 15.0 15.0 15.0 15.0 15.0 1.6 0.0 0.0 0.2 8.5 15.0 15.0 15.0 15.0 8.6 12.4 7.0 15.0 15.0 15.0 15.0 15.0
11.1 6.5 2.1 7.8 0.2 1.5 4.0 9.1 13.4 6.2 6.1 0.2 4.9 15.0 15.0 15.0 12.6 15.0 0.4 15.0 15.0 15.0 0.1 0.3 0.1 0.1 0.2 1.1 9.0 15.0 1.5 0.5 0.7 3.8 14.9 15.0 15.0 15.0
3.1 4.6 1.4 11.5 11.9 0.9 14.0 0.5 15.0 15.0 15.0 2.3 12.0 15.0 13.6 3.7 11.3 15.0 13.9 15.0 15.0 15.0 0.3 0.1 0.0 0.1 0.2 0.1 0.1 0.2 0.2 0.2 0.2 0.4 0.7 7.6 8.2 15.0
0.4 3.6 8.8 5.4 8.7 13.4 9.8 1.8 2.1 0.2 7.0 0.7 5.4 0.2 14.8 0.1 12.3 0.2 2.5 10.1 0.1 2.7 0.1 0.2 0.1 0.0 0.1 0.1 0.1 0.1 0.1 0.1 0.1 0.2 0.4 0.8 2.9 7.4
0.4 0.7 3.8 5.9 15.0 5.6 12.5 13.9 10.7 1.5 0.2 3.9 0.1 0.1 0.1 0.1 0.1 6.0 15.0 0.1 1.0 5.6 0.2 0.1 0.1 0.0 0.1 0.5 15.0 9.2 0.1 0.1 0.1 0.1 0.2 0.3 0.6 0.6
15.0 15.0 15.0 15.0 15.0 15.0 15.0 15.0 15.0 15.0 15.0 15.0 0.2 0.2 1.2 8.6 4.0 4.6 8.4 0.1 6.9 7.9 0.6 0.0 0.1 0.0 0.1 0.1 10.5 15.0 15.0 1.9 0.1 0.1 0.1 0.2 0.3 0.7
15.0 14.7 15.0 15.0 15.0 15.0 15.0 15.0 15.0 15.0 15.0 15.0 15.0 15.0 15.0 15.0 15.0 15.0 2.8 0.2 0.1 0.1 0.1 0.1 0.1 0.1 0.2 0.1 0.1 8.0 15.0 15.0 0.7 0.1 0.1 0.1 0.1 0.1
15.0 15.0 10.0 15.0 15.0 15.0 13.1 9.9 5.5 9.4 13.0 14.9 15.0 15.0 15.0 15.0 15.0 8.9 0.6 0.1 0.1 0.0 0.1 0.0 0.2 6.7 0.2 2.5 0.3 0.1 0.1 13.7 15.0 15.0 2.5 0.3 0.4 0.1
8.6 9.3 7.8 9.8 15.0 15.0 15.0 15.0 2.7 14.5 12.8 12.2 8.1 14.7 15.0 15.0 13.5 9.5 3.7 0.2 0.1 1.6 5.7 0.1 1.2 10.9 15.0 11.1 1.1 1.3 0.1 0.1 0.1 0.1 0.2 0.4 13.3 6.4
15.0 15.0 15.0 15.0 15.0 15.0 15.0 15.0 15.0 13.2 9.1 15.0 15.0 9.2 8.2 9.4 8.8 13.0 6.2 3.9 0.9 0.4 1.5 0.9 0.1 11.9 15.0 10.1 4.5 1.6 1.1 0.6 0.7 0.4 0.6 3.3 2.6 0.9
15.0 15.0 15.0 15.0 15.0 15.0 15.0 15.0 15.0 5.9 9.5 4.3 2.4 2.3 4.3 13.4 11.2 15.0 15.0 15.0 14.8 15.0 14.8 2.2 0.3 0.4 0.2 0.3 0.9 1.0 0.7 1.0 0.7 0.5 0.4 0.4 0.5 0.6
15.0 15.0 15.0 15.0 15.0 15.0 15.0 15.0 15.0 15.0 1.6 3.3 5.0 4.5 5.3 6.6 5.7 5.1 4.7 8.3 4.9 13.4 15.0 14.7 5.0 0.8 0.7 0.2 0.1 0.1 0.1 0.1 0.1 0.1 0.1 0.1 0.1 0.1
15.0 15.0 15.0 14.9 11.2 9.3 13.6 15.0 15.0 12.4 0.9 1.4 3.9 8.1 4.6 4.8 13.8 5.6 5.8 4.9 4.1 2.0 6.8 11.7 9.9 14.2 2.9 2.8 1.0 0.1 0.1 0.1 0.1 0.1 0.1 0.1 0.1 0.1
15.0 10.5 7.0 4.9 2.3 1.3 1.0 3.3 10.2 3.9 0.8 0.5 2.6 1.3 4.0 10.7 15.0 13.9 6.9 4.9 4.1 3.8 4.3 5.8 6.4 8.2 15.0 14.4 0.5 0.1 0.2 0.1 0.1 0.1 0.1 0.1 0.1 0.1
8.3 2.0 3.3 4.0 3.2 9.2 5.0 3.5 0.6 1.6 5.3 1.6 0.6 0.5 0.6 11.6 15.0 15.0 15.0 7.9 6.1 6.1 6.1 6.9 7.7 11.9 11.6 3.8 1.7 0.6 0.3 0.2 0.1 0.1 0.1 0.2 0.1 0.1
15.0 5.3 1.0 4.4 6.8 5.9 5.8 3.9 2.0 6.0 9.5 3.9 1.3 0.7 0.6 0.4 6.8 15.0 15.0 6.6 7.4 15.0 15.0 6.9 6.1 9.2 5.0 4.0 5.0 0.2 0.1 0.5 0.3 0.2 0.1 0.1 0.1 0.1
4.1 9.4 4.0 4.3 4.1 3.1 1.4 4.6 2.3 4.8 5.0 4.7 2.7 1.1 0.6 0.4 1.1 14.6 15.0 15.0 13.6 15.0 15.0 3.1 0.3 9.1 15.0 15.0 2.0 0.2 0.2 0.1 1.5 1.1 0.1 0.2 0.2 0.1
4.1 4.1 4.1 4.1 4.1 3.4 2.6 4.1 15.0 15.0 15.0 10.8 3.8 1.6 0.7 0.3 0.5 0.8 13.1 5.5 15.0 13.6 15.0 15.0 15.0 15.0 5.3 3.2 0.2 0.1 0.1 0.1 14.9 15.0 12.5 9.7 1.0 0.2
5.7 4.1 4.1 4.1 5.2 4.0 4.2 15.0 13.6 4.2 15.0 6.3 5.1 1.6 0.6 0.6 0.4 2.2 15.0 15.0 15.0 15.0 15.0 15.0 15.0 15.0 15.0 4.3 0.7 0.4 1.8 1.8 15.0 15.0 15.0 15.0 15.0 15.0